Weather History for Mora, MN

Change the Weather History Date:

Tuesday, April 15, 2014

  Actual Average Record
Temperature  
Mean Temperature 24 °F -  
Max Temperature 33 °F 59 °F 87 °F (2002)
Min Temperature 15 °F 30 °F 11 °F (1988)
Degree Days  
Heating Degree Days 41    
Moisture  
Dew Point 7 °F    
Average Humidity 47    
Maximum Humidity 73    
Minimum Humidity 27    
Precipitation  
Precipitation 0.00 in - - ()
Sea Level Pressure  
Sea Level Pressure 30.11 in    
Wind  
Wind Speed 7 mph (WNW)    
Max Wind Speed 12 mph    
Max Gust Speed -    
Visibility 10 miles    
Events      
Averages and records for this station are not official NWS values.
T = Trace of Precipitation, MM = Missing Value Source: NWS Daily Summary

Daily Weather History Graph

Daily Weather History Graph

Search for Another Location

Airport:

Trip Planner

Search our weather history database for the weather conditions in past years. The results will help you decide how hot, cold, wet, or windy it might be!

Date:

Astronomy

Apr. 15, 2014 Rise Set
Actual Time 6:27 AM CDT 8:00 PM CDT
Civil Twilight 5:55 AM CDT 8:31 PM CDT
Nautical Twilight 5:18 AM CDT 9:09 PM CDT
Astronomical Twilight 4:37 AM CDT 9:50 PM CDT
Moon 8:44 PM CDT (4/15) 6:34 AM CDT (4/15)
Length of Visible Light 14h 35m
Length of Day
13h 33m
Full, 100% of the Moon is Illuminated
Apr 15
Full
Apr 22
Last Quarter
Apr 29
New
May 6
First Quarter
May 14
Full

Hourly Weather History & Observations

Time (CDT) Temp. Windchill Dew Point Humidity Pressure Visibility Wind Dir Wind Speed Gust Speed Precip Events Conditions
12:10 AM 21.2 °F 9.5 °F 8.6 °F 58% 30.12 in 10.0 mi NW 11.5 mph - N/A   Clear
12:30 AM 21.2 °F 10.9 °F 8.6 °F 58% 30.12 in 10.0 mi NNW 9.2 mph - N/A   Clear
12:50 AM 21.2 °F 10.9 °F 8.6 °F 58% 30.12 in 10.0 mi NW 9.2 mph - N/A   Clear
1:11 AM 21.2 °F 10.9 °F 8.6 °F 58% 30.13 in 10.0 mi NW 9.2 mph - N/A   Clear
1:30 AM 21.2 °F 11.7 °F 6.8 °F 54% 30.13 in 10.0 mi NW 8.1 mph - N/A   Clear
1:50 AM 19.4 °F 7.9 °F 6.8 °F 58% 30.13 in 10.0 mi NNW 10.4 mph - N/A   Clear
2:10 AM 19.4 °F 7.9 °F 6.8 °F 58% 30.13 in 10.0 mi NW 10.4 mph - N/A   Clear
2:30 AM 19.4 °F 7.2 °F 6.8 °F 58% 30.13 in 10.0 mi NW 11.5 mph - N/A   Clear
2:50 AM 19.4 °F 7.9 °F 6.8 °F 58% 30.13 in 10.0 mi NW 10.4 mph - N/A   Clear
3:10 AM 19.4 °F 8.6 °F 6.8 °F 58% 30.13 in 10.0 mi NW 9.2 mph - N/A   Clear
3:31 AM 19.4 °F 7.9 °F 6.8 °F 58% 30.13 in 10.0 mi NNW 10.4 mph - N/A   Clear
3:50 AM 17.6 °F 6.4 °F 6.8 °F 63% 30.14 in 10.0 mi NW 9.2 mph - N/A   Clear
4:10 AM 17.6 °F 6.4 °F 6.8 °F 63% 30.14 in 10.0 mi NW 9.2 mph - N/A   Clear
4:30 AM 17.6 °F 5.7 °F 6.8 °F 63% 30.14 in 10.0 mi NW 10.4 mph - N/A   Clear
4:50 AM 17.6 °F 7.3 °F 6.8 °F 63% 30.14 in 10.0 mi NNW 8.1 mph - N/A   Clear
5:11 AM 17.6 °F 8.2 °F 8.6 °F 68% 30.14 in 10.0 mi NW 6.9 mph - N/A   Clear
5:30 AM 17.6 °F 9.3 °F 8.6 °F 68% 30.14 in 10.0 mi NNW 5.8 mph - N/A   Clear
5:51 AM 17.6 °F 8.2 °F 8.6 °F 68% 30.14 in 10.0 mi NW 6.9 mph - N/A   Clear
6:10 AM 17.6 °F 8.2 °F 8.6 °F 68% 30.13 in 10.0 mi NNW 6.9 mph - N/A   Clear
6:51 AM 15.8 °F 5.1 °F 8.6 °F 73% 30.14 in 10.0 mi NNW 8.1 mph - N/A   Clear
7:10 AM 17.6 °F 6.4 °F 8.6 °F 68% 30.14 in 10.0 mi NNW 9.2 mph - N/A   Clear
7:30 AM 17.6 °F 6.4 °F 8.6 °F 68% 30.15 in 10.0 mi NNW 9.2 mph - N/A   Clear
7:50 AM 19.4 °F 7.2 °F 8.6 °F 63% 30.15 in 10.0 mi NNW 11.5 mph - N/A   Clear
8:10 AM 19.4 °F 9.5 °F 6.8 °F 58% 30.15 in 10.0 mi North 8.1 mph - N/A   Clear
8:31 AM 19.4 °F 10.4 °F 6.8 °F 58% 30.16 in 10.0 mi NNW 6.9 mph - N/A   Clear
8:50 AM 21.2 °F 11.7 °F 8.6 °F 58% 30.16 in 10.0 mi NW 8.1 mph - N/A   Clear
9:10 AM 21.2 °F 12.6 °F 6.8 °F 54% 30.16 in 10.0 mi WNW 6.9 mph - N/A   Clear
9:29 AM 23.0 °F 14.7 °F 5.0 °F 46% 30.16 in 10.0 mi NNW 6.9 mph - N/A   Clear
9:50 AM 24.8 °F 16.1 °F 5.0 °F 43% 30.16 in 10.0 mi NNW 8.1 mph - N/A   Clear
10:11 AM 24.8 °F 16.9 °F 5.0 °F 43% 30.16 in 10.0 mi NW 6.9 mph - N/A   Clear
10:30 AM 24.8 °F 16.9 °F 3.2 °F 40% 30.16 in 10.0 mi West 6.9 mph - N/A   Clear
10:51 AM 26.6 °F 20.0 °F 5.0 °F 40% 30.16 in 10.0 mi West 5.8 mph - N/A   Clear
11:10 AM 26.6 °F 20.0 °F 3.2 °F 37% 30.15 in 10.0 mi NNW 5.8 mph - N/A   Clear
11:50 AM 26.6 °F 16.8 °F 3.2 °F 37% 30.14 in 10.0 mi WNW 10.4 mph - N/A   Clear
12:10 PM 28.4 °F 23.3 °F 3.2 °F 34% 30.14 in 10.0 mi NW 4.6 mph - N/A   Clear
12:30 PM 30.2 °F 23.4 °F 5.0 °F 34% 30.13 in 10.0 mi SW 6.9 mph - N/A   Clear
12:50 PM 30.2 °F 24.3 °F 3.2 °F 32% 30.12 in 10.0 mi NNW 5.8 mph - N/A   Clear
1:09 PM 32.0 °F 26.4 °F 5.0 °F 32% 30.10 in 10.0 mi WNW 5.8 mph - N/A   Clear
1:30 PM 32.0 °F 27.5 °F 3.2 °F 30% 30.10 in 10.0 mi WSW 4.6 mph - N/A   Clear
1:50 PM 32.0 °F - 1.4 °F 27% 30.10 in 10.0 mi Calm Calm - N/A   Clear
2:10 PM 32.0 °F 26.4 °F 3.2 °F 30% 30.09 in 10.0 mi WSW 5.8 mph - N/A   Clear
2:30 PM 32.0 °F 27.5 °F 3.2 °F 30% 30.09 in 10.0 mi West 4.6 mph - N/A   Clear
2:50 PM 32.0 °F 24.8 °F 3.2 °F 30% 30.08 in 10.0 mi SW 8.1 mph - N/A   Scattered Clouds
3:10 PM 32.0 °F - 3.2 °F 30% 30.07 in 10.0 mi Calm Calm - N/A   Clear
3:30 PM 32.0 °F - 3.2 °F 30% 30.07 in 10.0 mi Calm Calm - N/A   Clear
3:50 PM 32.0 °F 26.4 °F 5.0 °F 32% 30.06 in 10.0 mi SSE 5.8 mph - N/A   Clear
4:10 PM 32.0 °F 27.5 °F 5.0 °F 32% 30.06 in 10.0 mi SE 4.6 mph - N/A   Clear
4:30 PM 33.8 °F 28.6 °F 3.2 °F 28% 30.05 in 10.0 mi South 5.8 mph - N/A   Clear
4:50 PM 33.8 °F 30.8 °F 3.2 °F 28% 30.06 in 10.0 mi SSW 3.5 mph - N/A   Clear
5:11 PM 33.8 °F 28.6 °F 5.0 °F 30% 30.05 in 10.0 mi SSE 5.8 mph - N/A   Clear
5:30 PM 33.8 °F 30.8 °F 5.0 °F 30% 30.06 in 10.0 mi South 3.5 mph - N/A   Scattered Clouds
5:50 PM 32.0 °F 25.6 °F 5.0 °F 32% 30.06 in 10.0 mi SW 6.9 mph - N/A   Overcast
6:10 PM 32.0 °F 28.7 °F 5.0 °F 32% 30.05 in 10.0 mi SSW 3.5 mph - N/A   Mostly Cloudy
6:30 PM 32.0 °F 25.6 °F 5.0 °F 32% 30.06 in 10.0 mi SW 6.9 mph - N/A   Clear
6:50 PM 32.0 °F 27.5 °F 5.0 °F 32% 30.06 in 10.0 mi SSW 4.6 mph - N/A   Clear
7:10 PM 32.0 °F 28.7 °F 5.0 °F 32% 30.06 in 10.0 mi SSW 3.5 mph - N/A   Clear
7:31 PM 32.0 °F - 5.0 °F 32% 30.06 in 10.0 mi Calm Calm - N/A   Mostly Cloudy
7:50 PM 30.2 °F - 8.6 °F 40% 30.06 in 10.0 mi Calm Calm - N/A   Scattered Clouds
8:11 PM 30.2 °F - 8.6 °F 40% 30.07 in 10.0 mi Calm Calm - N/A   Scattered Clouds
8:30 PM 30.2 °F - 12.2 °F 47% 30.07 in 10.0 mi Calm Calm - N/A   Mostly Cloudy
8:50 PM 28.4 °F - 10.4 °F 47% 30.08 in 10.0 mi Calm Calm - N/A   Overcast
9:10 PM 28.4 °F - 12.2 °F 51% 30.09 in 10.0 mi Calm Calm - N/A   Overcast
9:29 PM 30.2 °F - 12.2 °F 47% 30.10 in 10.0 mi Calm Calm - N/A   Overcast
9:50 PM 28.4 °F - 12.2 °F 51% 30.09 in 10.0 mi Calm Calm - N/A   Overcast
10:09 PM 28.4 °F - 12.2 °F 51% 30.10 in 10.0 mi Calm Calm - N/A   Overcast
10:30 PM 28.4 °F - 14.0 °F 55% 30.10 in 10.0 mi Calm Calm - N/A   Overcast
10:50 PM 28.4 °F - 14.0 °F 55% 30.09 in 10.0 mi Calm Calm - N/A   Overcast
11:11 PM 28.4 °F - 14.0 °F 55% 30.09 in 10.0 mi Calm Calm - N/A   Overcast
11:30 PM 30.2 °F 25.4 °F 14.0 °F 51% 30.09 in 10.0 mi East 4.6 mph - N/A   Overcast
11:50 PM 30.2 °F 23.4 °F 14.0 °F 51% 30.08 in 10.0 mi East 6.9 mph - N/A   Overcast